Tracking 30970 objects as of 3-Jul-2025
HD Live streaming from Space Station
objects crossing your sky now

COSMOS 886 DEB

Track COSMOS 886 DEB now!
10-day predictions


NORAD ID: 9651
Int'l Code: 1976-126H
Perigee: 540.0 km
Apogee: 1,747.9 km
Inclination: 65.8 °
Period: 108.1 minutes
Semi major axis: 7514 km
RCS: 0.1278 m2 (medium)
Launch date: December 27, 1976
Source: Commonwealth of Independent States (former USSR) (CIS)
Launch site: TYURATAM MISSILE AND SPACE COMPLEX (TTMTR)

Note: This is SATELLITE DEBRIS
Your satellite tracking list
METEOR 2-17 DEB
Track 1 satellite(s)




NASA's NSSDC Master Catalog

Two Line Element Set (TLE):
1 09651U 76126H   25183.80298339  .00000945  00000-0  32234-3 0  9999
2 09651  65.7923 353.2288 0803668 256.1049  94.9411 13.32638768305434
Source of the keplerian elements: AFSPC